Wind_Speed
28 28 27 27 26 26 25 25 24 24 23 22 21 21 20 20 20 19 18 17 16 16 15 15 15 13 12 10 10 11 12 12 12 13 14 15 15 16 16 17 18 19 19 20 21 22 24 24 25 25 25 22 16 7 4 15 20 19 15 12 15 20 22 24 26 27 26 28 30 30 29 28 27 26 24 23 23 23 23 23 22 22 22 22 22 21 22 22
30 30 30 29 29 29 28 28 27 27 26 25 24 24 23 22 22 22 21 20 19 18 17 17 17 16 14 13 11 11 12 13 12 12 13 14 14 15 15 16 16 17 18 19 19 21 22 23 24 25 25 25 21 14 4 7 16 18 13 12 17 19 20 21 23 26 26 26 27 27 27 26 25 24 24 22 22 22 22 22 22 22 22 22 21 21 21 22
33 33 32 32 32 31 31 31 30 30 29 28 27 27 26 26 25 24 24 23 22 21 20 19 18 18 17 15 13 12 12 12 13 13 12 13 13 13 14 15 15 16 17 17 18 19 21 22 23 24 25 25 24 19 10 1 11 17 16 15 19 18 17 18 19 22 23 23 23 23 24 24 23 22 22 21 20 20 20 21 20 21 21 21 21 20 20 20
35 35 35 35 34 34 34 33 33 33 32 31 30 30 29 29 28 27 27 26 25 24 23 22 21 19 19 18 16 15 13 12 13 14 13 13 13 13 13 14 14 15 15 16 17 18 19 21 22 24 25 25 25 23 16 7 6 16 19 17 17 16 14 15 17 19 19 20 20 20 20 20 20 20 20 19 18 19 19 19 19 19 20 19 18 18 17 16
38 38 37 37 37 36 36 36 35 35 35 34 33 32 31 31 31 31 30 29 28 27 26 25 24 22 21 20 19 17 16 15 14 14 15 15 14 14 14 14 14 14 14 15 16 17 18 19 21 23 24 25 25 25 21 14 4 11 18 17 15 13 11 12 15 16 16 17 17 16 17 17 18 18 17 17 16 16 16 17 17 18 18 15 14 13 13 12
39 39 39 39 38 38 38 37 37 37 37 36 35 34 34 33 33 33 33 32 31 30 29 28 27 26 24 22 21 20 19 18 17 16 16 16 16 15 15 14 14 14 13 14 15 16 17 18 19 21 23 24 25 25 23 18 11 1 12 16 13 11 9 10 12 13 13 13 13 13 15 16 16 17 17 16 14 13 13 13 13 13 12 10 9 10 10 10
40 40 39 39 38 38 38 38 38 37 37 37 36 36 35 34 34 34 34 34 34 33 32 30 29 29 27 25 23 22 21 20 22 20 17 17 17 17 16 16 15 14 14 13 13 15 16 17 17 19 21 22 23 24 23 19 15 9 3 10 11 10 8 8 10 10 9 9 10 12 15 16 17 17 16 14 12 10 9 9 8 8 8 8 9 10 10 9
41 41 40 40 40 39 39 38 38 38 38 37 37 36 35 35 34 34 34 34 35 35 34 33 32 31 29 27 25 23 21 22 25 23 20 19 18 19 18 17 17 16 15 13 12 13 14 15 16 17 18 20 21 22 22 19 14 11 6 5 7 8 8 8 8 7 6 6 9 13 15 16 16 15 13 11 9 8 8 7 7 8 9 10 10 10 11 10
44 44 44 43 43 43 42 42 41 41 40 40 39 38 37 37 36 36 35 35 35 35 35 34 33 32 31 29 26 23 21 24 27 24 23 22 20 21 20 19 19 18 16 15 13 12 13 13 14 14 16 17 19 20 20 19 14 11 8 4 3 5 7 8 7 6 5 7 9 12 14 15 15 13 11 9 8 8 8 8 9 9 10 10 11 11 11 10
48 48 48 47 47 47 46 46 45 45 44 44 43 42 41 40 39 38 37 37 36 36 35 35 35 33 32 31 27 24 23 27 30 26 26 26 23 23 23 21 21 20 19 17 15 13 12 12 13 13 13 14 16 18 18 18 15 11 8 6 4 2 4 6 6 6 7 7 9 10 11 12 13 12 10 9 9 8 8 9 8 8 9 10 10 10 10 10
50 50 50 50 50 50 50 50 49 49 49 48 47 46 45 44 43 42 41 40 39 38 38 37 36 35 33 32 28 25 26 30 32 28 26 27 26 25 25 23 23 22 21 20 17 15 13 12 12 12 12 12 13 15 16 16 15 12 7 6 5 4 3 4 6 7 9 9 10 10 10 11 11 11 11 10 9 8 8 8 7 5 7 8 8 9 10 10
51 51 51 51 51 51 51 51 51 51 51 51 51 50 49 48 47 46 45 44 43 42 41 40 39 38 36 33 31 29 28 30 31 28 26 29 29 27 26 26 25 25 24 23 20 18 15 13 12 12 11 10 10 12 13 14 14 12 8 5 4 4 3 4 6 8 10 10 10 9 9 10 11 12 12 10 9 8 8 8 5 2 4 6 7 8 10 11
54 54 54 54 54 53 53 53 53 53 52 52 52 52 52 51 50 49 48 47 47 46 45 44 43 42 39 37 35 33 31 31 31 29 27 29 30 28 28 29 28 27 27 26 24 21 18 15 13 13 12 10 9 9 10 12 12 12 9 6 3 3 4 5 7 9 10 10 9 9 10 11 12 13 12 11 10 9 9 9 6 3 2 5 7 8 10 12
57 57 57 57 57 57 57 57 56 56 56 55 54 54 53 53 52 51 51 50 50 49 48 47 46 45 43 40 40 37 35 34 32 30 29 28 30 30 30 30 30 30 29 29 27 24 21 19 16 14 13 12 9 8 7 9 9 10 9 6 3 2 3 5 8 9 10 10 9 9 9 10 12 13 13 11 10 11 11 10 8 5 2 4 6 8 11 13
59 58 59 59 59 60 60 60 59 59 60 59 58 57 57 56 55 54 53 53 52 52 51 51 50 49 47 45 44 42 39 38 35 32 31 30 30 30 30 31 32 32 32 32 30 27 24 22 19 16 14 13 11 9 6 6 7 8 8 6 4 1 2 5 7 9 11 10 9 9 9 9 10 12 12 11 11 12 12 11 10 8 4 4 7 10 13 15
59 59 60 60 60 61 61 61 61 61 62 62 62 61 61 60 59 58 56 55 55 54 54 53 53 52 50 49 48 47 44 42 39 36 34 32 32 32 31 31 32 33 33 33 32 30 28 25 23 19 16 14 13 11 8 5 4 5 5 5 4 2 2 4 6 8 10 10 10 10 9 9 10 12 12 12 12 12 11 11 11 11 9 9 11 13 15 17
56 56 57 58 59 60 61 61 62 62 62 63 63 63 63 63 62 62 61 60 58 58 56 56 55 54 53 52 51 50 49 47 44 40 37 35 34 34 33 32 32 33 34 34 34 32 30 28 26 23 19 17 15 13 10 8 6 3 3 3 3 2 3 2 4 6 8 9 9 9 9 10 12 13 13 12 12 11 11 11 11 13 14 13 13 14 15 17
48 49 50 51 53 55 56 57 58 59 60 62 63 63 64 64 64 64 64 63 62 61 60 59 58 56 56 55 53 54 53 51 49 45 42 39 37 37 35 33 33 34 34 35 35 34 33 31 28 26 23 20 18 15 13 11 9 6 3 2 2 0 3 3 3 4 5 7 7 8 9 11 13 13 13 11 11 11 12 13 13 14 16 14 12 12 12 14
41 42 43 44 45 47 49 50 51 53 54 56 58 59 61 62 64 64 65 65 64 63 62 62 61 59 59 58 56 56 56 54 53 50 46 44 41 40 38 36 35 35 35 36 36 36 34 32 29 29 27 22 19 17 15 14 12 9 7 5 3 3 3 4 3 3 4 6 7 8 10 11 12 13 12 11 11 12 14 15 15 16 15 13 11 9 9 11
38 38 39 39 39 41 43 44 45 47 48 49 50 52 54 56 58 60 63 65 65 65 64 64 64 62 61 60 60 59 58 57 56 54 51 48 46 43 42 40 38 37 36 37 38 38 36 32 31 33 30 24 21 19 18 17 15 13 11 8 6 5 4 4 5 5 4 6 7 7 8 9 11 12 12 12 12 14 16 17 17 17 14 12 11 9 9 9
36 36 37 37 36 37 39 40 41 42 43 44 45 46 47 50 51 53 57 60 61 63 63 64 65 64 63 62 62 62 61 60 59 58 55 52 50 47 45 43 41 39 39 39 39 39 37 33 35 37 33 27 23 22 22 21 19 17 15 12 10 8 5 5 6 7 6 6 7 7 6 7 9 11 12 13 13 15 17 18 18 17 13 11 10 11 12 11
36 37 37 37 35 35 37 38 38 39 40 40 41 41 42 44 45 47 49 53 56 57 59 61 63 64 64 63 64 64 63 63 62 60 59 56 54 52 49 47 45 43 42 41 40 39 38 36 39 40 36 30 26 24 24 24 22 20 19 16 14 11 8 8 8 8 9 8 7 7 7 6 8 10 12 12 13 14 17 17 17 16 13 11 11 12 12 11
39 40 40 39 38 37 37 38 38 38 38 38 38 38 39 40 40 42 43 46 50 51 53 55 58 61 63 63 65 66 65 64 63 63 62 60 58 56 54 51 49 48 45 42 41 41 40 41 44 44 38 32 28 26 27 26 24 23 22 20 18 14 12 11 9 9 10 10 9 9 9 8 8 9 11 12 13 14 15 17 16 15 13 12 13 13 11 10
42 43 43 43 42 40 40 41 40 40 40 39 38 37 37 37 38 38 38 40 45 47 48 49 53 57 59 60 63 65 66 66 65 65 65 63 61 59 57 56 54 51 48 45 44 43 44 46 48 45 39 34 31 27 28 28 27 26 25 24 21 18 16 13 11 11 11 11 12 11 10 10 9 8 9 11 13 13 14 15 15 14 13 12 12 12 11 11
44 45 46 46 45 44 43 44 44 44 43 42 41 39 38 37 37 37 37 36 38 42 43 44 48 52 54 56 58 61 64 65 66 66 66 66 65 62 61 60 57 54 52 50 48 46 47 50 50 46 42 38 34 30 29 30 31 29 28 27 25 22 19 17 16 15 13 13 13 13 13 13 12 11 10 10 11 13 13 13 13 13 12 12 12 12 12 11
46 47 48 48 48 47 45 45 46 47 47 46 45 43 41 39 38 38 37 36 35 38 40 39 42 47 51 53 54 57 59 62 65 66 67 68 67 65 64 63 60 59 57 55 52 50 51 53 51 48 47 43 38 34 32 32 33 31 30 31 29 25 23 21 21 19 16 16 15 15 15 16 15 14 12 12 12 13 13 13 13 12 12 11 11 11 12 12
49 49 50 50 50 49 47 45 46 48 49 50 49 47 45 43 41 40 39 38 34 36 39 38 37 41 47 50 52 54 54 58 62 64 67 70 68 67 66 65 64 63 62 59 55 52 54 55 52 51 51 47 43 39 36 35 35 34 35 35 32 28 26 26 25 21 19 19 17 17 17 17 17 16 15 15 15 15 14 13 13 13 13 13 12 13 13 13
53 52 52 54 53 52 51 48 47 48 49 51 52 51 50 48 46 44 42 40 35 37 41 40 37 38 42 46 50 52 52 55 57 59 65 69 68 69 68 67 67 67 66 62 58 57 59 58 54 55 56 52 48 45 42 40 37 37 39 38 35 31 29 30 29 25 24 22 19 18 19 18 18 17 17 16 17 17 16 15 15 15 14 14 14 14 15 15
57 55 55 57 56 56 56 53 51 50 51 52 53 53 52 52 51 49 46 42 39 40 44 43 40 39 40 42 46 49 51 52 52 55 62 65 67 68 69 70 70 70 68 64 63 62 62 61 58 59 59 56 53 50 46 44 40 41 43 39 35 33 32 33 32 29 26 23 20 20 21 21 20 19 19 19 19 18 17 17 18 17 16 15 15 15 15 16
61 59 59 60 60 59 59 58 56 55 55 54 55 54 53 53 53 52 49 45 44 44 45 46 44 41 41 42 43 45 48 51 50 52 57 61 64 66 69 72 71 71 70 66 66 66 65 64 61 60 61 59 58 53 50 47 44 45 45 39 36 35 35 35 34 30 25 21 21 23 24 24 22 21 21 22 20 18 19 19 19 19 18 17 16 16 16 17
64 63 63 63 64 64 63 62 60 60 59 57 58 57 56 55 53 52 49 46 49 48 46 48 47 44 44 43 42 42 44 48 50 52 54 57 61 63 66 70 71 73 72 69 69 70 68 66 63 62 62 63 61 56 54 52 50 50 46 40 39 38 36 35 35 31 23 22 24 26 28 27 25 24 25 24 22 20 20 20 19 19 19 18 18 17 18 20
67 66 66 66 67 69 68 67 66 64 62 61 61 60 59 58 54 51 49 49 52 50 49 52 50 47 46 44 42 41 41 45 47 51 53 54 57 60 63 66 69 73 74 72 73 73 71 68 67 67 66 66 65 60 58 57 55 54 47 43 44 41 37 35 35 31 26 26 30 31 31 30 29 28 27 26 24 22 22 21 20 20 19 20 20 19 20 23
71 70 69 68 68 71 71 71 71 69 65 64 64 62 62 59 54 52 53 53 55 54 53 56 55 53 50 47 45 43 41 43 44 48 53 54 54 57 60 63 66 70 74 75 76 75 73 70 70 70 69 69 68 63 61 60 59 57 51 48 48 44 39 36 35 34 33 32 35 37 36 32 32 32 30 28 27 25 24 23 22 21 21 22 22 21 22 24
75 74 73 72 71 72 73 73 73 73 70 68 67 66 64 60 56 56 57 58 60 59 58 59 60 59 56 53 51 45 43 45 43 44 50 53 54 55 57 61 63 66 72 76 77 77 76 72 70 71 71 70 70 66 64 65 64 62 58 55 53 48 42 39 38 40 40 38 40 43 39 34 34 36 34 32 30 28 26 24 24 24 24 24 23 24 25 24
80 79 79 78 77 77 78 78 78 77 75 72 71 70 65 60 60 61 61 62 64 64 63 63 63 63 61 60 57 49 48 49 44 43 47 50 54 55 56 59 62 64 68 73 76 78 78 75 73 75 75 73 73 69 69 70 66 66 66 61 54 50 46 45 45 45 45 44 44 44 40 37 38 40 39 35 33 32 29 26 26 28 28 26 25 26 26 24
82 82 82 82 81 82 83 84 83 83 80 77 74 70 65 63 65 66 66 65 66 68 68 67 67 67 65 65 63 56 55 54 47 45 46 46 50 54 55 57 59 62 64 68 73 77 79 78 77 78 77 75 75 74 73 72 68 71 72 62 54 54 52 51 50 49 49 47 44 44 43 42 42 43 42 38 36 35 30 27 29 32 31 29 27 28 27 26
85 85 85 85 84 84 86 87 87 87 85 82 77 71 68 70 70 71 71 69 68 70 71 70 70 72 71 69 67 63 62 60 52 49 49 47 47 50 54 57 58 59 63 66 70 74 78 81 80 79 79 77 77 78 76 73 72 75 73 63 61 62 60 56 53 53 51 46 44 46 47 45 44 45 45 41 39 35 30 31 35 35 33 31 31 31 30 29
88 89 89 88 87 87 88 90 90 90 89 87 81 75 73 75 74 75 76 74 72 72 73 73 73 74 73 72 71 69 67 66 59 54 55 50 46 47 51 56 57 58 61 65 68 70 75 80 83 82 81 80 81 81 79 76 74 75 71 68 69 68 63 58 56 55 52 46 46 49 50 48 46 46 48 45 42 37 33 37 41 38 36 35 34 34 33 32
92 93 93 91 91 92 92 92 93 93 93 90 85 81 80 79 78 78 79 79 77 75 74 75 76 76 75 73 75 73 70 69 65 62 60 55 50 47 47 52 57 58 60 63 66 68 70 76 83 84 83 84 85 83 81 77 75 74 73 73 75 70 64 62 60 58 54 51 50 51 50 49 47 49 51 50 47 40 37 42 44 41 39 38 38 37 36 35
95 97 97 95 95 98 97 97 98 98 96 93 90 88 86 85 83 82 82 82 81 78 76 77 78 79 77 75 76 76 74 71 69 68 65 60 55 49 46 49 55 58 61 62 64 67 68 72 80 85 86 87 86 82 79 78 76 76 76 76 76 72 68 68 66 62 57 54 53 52 51 51 50 50 52 54 52 45 42 46 47 44 42 41 41 41 39 38
100 101 103 101 101 104 104 103 102 102 101 98 95 93 91 89 88 87 86 86 85 81 79 80 82 82 81 79 77 78 78 75 71 71 71 66 60 54 50 51 54 57 61 62 62 65 67 68 75 84 85 85 85 83 81 83 81 79 79 78 77 75 75 74 70 63 60 57 56 54 52 53 54 53 54 58 55 49 45 47 48 47 46 45 44 43 43 42
106 107 108 107 107 110 111 109 107 106 105 102 99 98 97 95 94 92 90 90 88 85 83 84 85 85 85 83 81 80 81 78 74 73 74 72 65 61 57 53 53 55 59 62 62 64 66 67 71 79 81 82 85 87 86 88 86 85 83 80 79 81 80 78 72 66 65 61 57 56 54 55 57 56 58 61 58 52 49 48 50 50 48 47 46 46 46 46
111 112 113 113 112 114 116 115 112 111 109 106 104 104 103 101 99 97 95 93 91 90 89 88 88 89 88 86 84 84 84 82 77 75 77 75 71 67 62 55 55 55 56 61 65 64 65 66 67 73 77 80 85 89 90 90 89 88 85 82 83 83 79 77 74 71 69 64 61 62 58 56 58 59 60 62 59 56 52 51 52 51 51 51 49 49 51 49
118 117 118 120 119 119 120 119 118 117 115 112 110 109 108 106 104 102 99 97 95 95 94 92 91 91 91 90 88 88 87 85 81 79 78 78 76 72 66 59 58 60 59 61 65 64 63 64 65 70 75 77 82 86 90 90 89 89 86 83 84 81 77 77 77 75 72 68 68 67 60 58 61 62 62 62 60 60 57 53 53 53 54 54 52 52 54 52
126 125 125 127 128 127 126 125 125 124 122 119 117 115 113 111 109 107 104 102 100 99 99 97 95 94 94 94 92 91 90 88 85 82 80 80 78 75 69 63 63 66 63 60 62 64 64 64 64 67 70 73 77 82 86 89 90 90 88 86 85 82 80 81 81 78 75 72 73 69 62 62 65 65 64 62 60 64 63 56 55 56 57 57 55 55 57 54
133 133 133 134 135 134 132 132 132 131 130 127 124 122 120 118 115 113 110 106 105 104 103 102 100 98 97 97 95 93 92 91 88 85 83 82 80 77 73 70 70 71 65 59 59 62 63 63 62 63 67 71 75 79 83 90 94 93 92 90 89 86 84 85 85 83 77 76 78 71 65 69 68 64 65 63 61 68 67 59 58 59 59 59 58 59 58 55
139 139 139 140 141 139 138 138 138 137 135 132 129 126 124 123 120 117 114 111 110 109 108 107 105 102 100 99 98 96 95 94 91 88 86 85 82 79 76 75 75 72 66 62 61 61 62 63 63 63 66 69 72 76 81 88 93 93 93 93 92 91 89 88 88 85 80 81 81 73 70 73 69 65 66 64 64 70 69 63 61 61 61 62 62 62 60 58
142 142 143 144 144 143 142 142 143 142 140 136 132 130 128 127 124 121 119 117 115 115 113 111 109 106 104 103 102 99 97 96 94 90 88 86 84 81 79 79 77 73 68 67 65 62 61 63 64 65 66 67 70 74 79 85 90 92 93 94 95 94 92 91 89 86 84 85 82 76 74 75 72 69 67 64 66 72 72 69 67 65 64 65 65 63 62 59
141 141 142 143 143 143 143 144 144 144 142 139 137 134 133 130 128 126 124 122 121 120 117 115 113 111 109 108 106 103 101 99 97 93 90 89 86 84 82 80 78 74 71 70 68 64 60 61 63 65 65 67 70 71 75 80 85 90 93 95 96 96 94 92 90 87 87 87 83 79 78 77 75 72 69 67 69 73 74 73 71 69 68 68 66 63 63 61
132 133 134 136 137 138 139 141 142 142 141 140 137 136 135 133 131 130 129 127 125 122 120 119 118 117 115 112 109 106 103 101 99 96 93 91 87 85 84 80 77 76 74 72 69 65 61 60 63 66 66 67 69 69 71 75 81 86 91 93 96 97 96 94 91 89 88 87 84 82 80 78 77 74 71 71 72 73 75 76 74 73 72 70 67 65 65 63
116 116 118 120 122 125 128 131 133 134 135 135 134 135 134 133 132 131 130 128 126 123 122 123 122 119 115 111 109 107 106 105 103 100 96 91 88 87 85 81 79 78 76 73 70 67 63 61 63 66 66 65 66 67 69 72 77 82 86 89 92 95 96 95 93 90 89 87 86 85 81 78 78 77 74 73 73 74 76 78 77 76 74 72 69 68 67 64
100 100 101 103 105 108 112 114 116 118 121 123 125 127 129 129 129 129 128 127 126 125 125 125 122 118 114 112 111 111 111 109 103 98 93 91 89 88 85 81 79 78 75 73 71 68 65 63 63 64 63 63 64 66 67 70 74 78 81 83 87 91 95 96 95 94 92 90 89 87 82 80 82 82 77 76 75 75 76 79 80 79 76 73 72 71 70 67
Wind_Direction
256 257 258 259 260 261 262 263 264 265 266 267 269 270 272 275 277 279 280 283 286 290 294 300 306 311 317 323 330 335 339 346 351 354 355 360 5 7 13 18 21 24 27 30 33 34 33 30 27 23 21 22 24 28 214 213 207 202 202 218 239 236 231 232 232 227 229 235 234 233 234 234 235 236 237 239 241 243 245 246 247 249 250 251 252 251 251 251
257 258 259 260 261 262 263 264 265 265 266 267 269 270 270 272 274 276 278 280 282 284 286 290 295 301 305 309 313 320 326 332 337 343 346 348 354 357 1 8 13 17 20 23 27 31 31 30 28 23 21 21 23 24 13 221 210 200 191 215 234 232 228 229 230 228 228 232 232 232 234 234 235 236 237 239 241 243 246 247 249 251 252 253 253 251 250 251
258 259 259 261 262 262 264 264 265 265 266 267 268 269 270 271 271 273 275 277 279 281 282 283 287 292 297 301 303 307 313 320 324 328 335 337 341 347 350 356 2 9 13 15 20 25 28 29 28 24 21 21 23 24 21 288 215 200 186 208 228 225 225 228 228 227 226 227 227 228 230 231 233 234 236 237 239 242 245 248 250 251 253 252 252 251 251 252
259 260 260 261 262 262 263 264 265 265 266 266 267 268 269 271 271 272 272 273 275 276 278 279 281 283 289 294 296 298 302 307 311 314 321 325 328 334 339 344 349 357 4 8 11 17 23 26 27 25 21 20 23 27 26 17 231 206 193 204 219 216 218 226 228 225 222 222 221 222 225 226 228 230 232 234 237 240 243 247 250 251 250 250 251 251 250 251
260 260 261 261 262 262 263 263 264 265 265 265 265 266 267 269 270 271 272 272 272 272 274 275 276 277 280 285 290 293 295 297 300 301 309 314 317 322 327 332 337 345 353 360 3 8 15 22 25 25 22 19 22 27 29 25 357 213 204 205 209 208 209 218 222 220 218 217 217 218 221 222 223 225 226 228 231 237 241 243 245 245 244 243 246 246 241 237
261 261 262 262 262 262 263 263 264 264 265 265 265 265 265 266 267 268 270 272 272 272 271 272 273 274 275 276 282 287 289 291 291 291 298 303 306 310 315 320 324 332 341 350 356 360 6 14 21 24 23 20 20 25 30 31 30 170 205 203 203 200 198 208 213 211 210 210 214 217 220 221 220 220 220 218 218 222 228 230 232 234 233 231 232 227 217 208
262 263 263 263 263 263 263 263 264 264 264 264 264 265 264 264 265 265 266 268 270 271 271 270 270 271 272 272 273 278 283 286 285 285 288 291 296 299 303 308 314 320 327 338 347 352 357 4 14 22 24 21 20 24 29 32 37 46 161 193 198 197 190 204 206 198 200 204 215 221 220 219 215 211 207 203 198 201 209 212 217 222 220 216 210 203 194 189
264 264 264 264 264 264 264 264 264 264 264 264 264 264 264 264 264 264 264 265 266 268 269 269 269 269 269 269 269 271 276 277 278 281 282 282 285 290 294 298 303 309 314 324 334 343 349 354 4 16 22 22 20 22 28 32 38 47 63 151 186 196 195 205 201 188 197 217 225 224 217 210 204 196 188 183 184 195 201 203 211 215 213 208 202 194 189 184
264 264 264 264 264 264 264 264 264 264 264 264 264 264 263 263 263 263 263 263 264 265 266 267 267 267 267 267 267 267 268 269 271 276 276 275 277 281 286 290 294 299 303 311 320 329 337 343 353 6 17 23 22 20 25 32 40 48 53 79 151 191 199 197 185 178 203 227 226 219 209 200 191 181 172 174 183 194 201 201 206 210 207 205 201 197 194 188
264 264 264 264 264 264 264 264 264 263 264 264 264 263 263 262 262 262 262 262 263 263 264 264 265 265 266 266 265 266 265 263 264 266 269 271 272 275 280 283 287 290 294 300 306 314 323 331 339 352 6 18 22 20 20 27 37 47 51 57 80 140 182 178 168 175 191 209 215 209 203 194 184 175 167 172 180 188 196 195 195 200 205 204 202 202 200 192
265 265 264 264 264 263 263 263 263 263 263 263 263 262 262 261 261 261 261 261 261 262 262 263 263 263 264 264 264 263 260 258 260 261 264 269 270 271 275 278 281 284 287 291 295 301 309 317 326 336 351 6 19 21 18 21 30 39 47 56 70 96 134 155 160 172 179 191 201 199 200 194 182 172 166 166 169 175 185 181 176 189 210 209 205 208 205 192
267 266 266 265 264 264 263 263 263 262 262 262 262 261 261 260 259 259 259 259 259 260 261 261 262 262 262 262 261 259 256 257 260 261 261 264 266 267 270 273 275 278 282 285 287 291 296 303 312 320 333 349 6 19 20 17 22 31 41 51 69 95 125 152 157 164 169 177 186 187 195 195 185 175 167 162 161 167 173 163 147 163 220 214 206 210 202 183
267 267 267 266 266 265 264 264 263 262 262 261 261 260 260 259 258 258 257 257 257 257 258 259 260 261 261 260 259 257 256 256 258 259 258 260 263 264 265 268 271 274 276 279 281 283 286 291 297 306 315 328 344 5 18 17 16 22 32 45 66 105 131 153 156 156 159 164 173 181 191 197 193 181 167 160 161 164 158 142 124 117 206 202 194 195 186 170
267 267 267 267 266 266 266 265 264 264 263 262 261 260 260 259 258 257 256 256 256 256 256 256 257 258 259 258 258 257 255 255 255 256 256 257 259 261 262 264 266 269 271 273 276 277 279 282 285 291 299 308 321 337 3 15 13 14 22 36 58 119 149 161 162 157 157 162 171 179 187 195 195 185 169 162 166 162 150 137 126 124 160 186 182 179 170 159
268 268 268 267 267 266 266 266 265 265 264 263 262 261 260 259 259 257 256 255 254 254 254 254 254 255 255 255 256 257 255 254 253 253 253 253 255 257 258 259 261 264 266 268 271 273 273 275 276 278 285 293 301 310 328 355 6 8 12 22 40 90 151 166 166 161 159 163 170 172 175 180 180 173 165 164 166 160 148 139 134 132 139 157 159 156 152 146
270 269 269 269 268 267 267 266 266 265 265 264 263 262 261 260 259 258 256 255 254 254 253 253 253 253 253 252 253 255 254 253 252 250 250 250 252 253 254 255 257 259 262 264 266 268 269 269 271 270 272 278 285 291 297 310 336 358 2 10 23 64 136 169 172 167 165 169 173 173 172 168 158 152 152 158 162 157 148 143 139 135 135 141 142 140 139 137
271 271 270 270 270 269 268 268 267 266 266 265 264 263 263 261 260 259 258 256 255 254 253 252 252 251 251 251 251 252 252 252 251 250 248 247 249 251 251 253 255 257 258 261 262 263 265 265 266 267 266 267 271 275 281 284 288 310 343 359 359 47 109 162 191 184 177 178 177 173 171 165 154 148 149 155 159 156 150 146 143 139 138 141 141 139 138 137
274 273 273 272 272 271 270 270 269 268 267 266 266 265 264 263 262 260 259 258 256 254 253 252 251 250 251 250 249 250 250 250 250 249 247 246 245 247 249 249 252 254 255 257 259 260 261 262 263 264 262 259 260 264 269 273 270 274 281 298 305 248 123 137 194 207 192 176 171 163 158 156 150 146 150 157 160 157 154 151 148 146 144 143 145 144 144 143
273 273 273 273 273 273 272 272 271 270 269 268 268 267 266 264 263 262 261 259 257 255 254 253 251 250 250 249 249 249 249 249 249 247 246 245 243 244 246 247 248 251 253 255 257 258 258 260 261 261 259 255 254 257 260 262 262 263 259 249 247 230 178 152 160 191 193 170 163 158 153 151 143 140 145 153 158 157 155 153 151 153 150 144 144 147 150 149
270 269 269 269 269 270 271 271 271 271 271 270 270 269 268 267 265 264 262 261 259 258 255 254 252 250 249 249 248 248 248 248 247 246 245 244 243 242 242 244 244 247 250 253 255 256 256 258 259 258 257 254 251 251 253 254 256 257 253 247 239 226 207 191 172 166 184 179 173 171 166 159 146 140 142 148 156 157 155 156 157 159 158 150 147 150 152 151
271 269 268 267 266 267 268 268 268 268 269 269 269 270 270 269 268 267 265 264 261 259 258 256 254 251 249 248 248 247 247 247 247 246 244 243 242 241 240 241 241 243 245 249 251 254 256 256 256 256 255 252 247 246 248 249 251 253 252 249 243 232 219 221 202 177 178 187 192 197 195 179 158 150 149 150 156 159 158 160 163 166 167 164 161 159 159 157
272 272 271 269 267 267 267 267 266 265 266 266 266 267 267 268 269 268 268 267 264 262 260 258 256 254 250 248 247 247 246 246 246 246 244 242 241 240 239 239 239 239 241 244 248 253 255 253 252 254 253 250 247 245 246 247 247 249 250 248 243 234 222 222 221 202 187 187 201 216 217 199 175 163 157 154 158 162 162 166 170 175 179 177 172 168 167 168
272 273 273 272 271 269 270 270 268 267 266 265 264 264 263 264 265 266 267 268 268 266 263 261 258 256 253 249 248 246 245 244 244 245 244 242 240 239 239 238 237 237 237 240 244 248 251 250 251 252 252 250 247 244 244 246 245 246 248 248 244 239 231 224 223 221 209 197 197 212 219 208 188 176 167 162 164 166 166 170 175 182 186 183 176 173 175 177
272 273 273 273 273 272 272 272 272 271 269 267 266 264 263 262 261 263 264 265 268 267 266 265 263 259 256 252 249 247 245 244 243 243 244 243 241 239 238 238 236 236 236 236 239 242 246 248 250 252 252 251 248 244 244 245 245 243 244 246 246 243 240 234 228 226 224 216 206 203 209 206 195 190 185 176 173 174 173 175 178 182 186 185 180 178 180 182
273 274 274 274 274 273 273 273 273 272 271 270 269 267 266 264 262 261 261 262 266 267 266 266 266 264 259 255 252 249 246 244 242 241 242 242 241 238 237 237 236 235 235 234 235 238 243 247 250 252 252 250 248 244 243 244 243 243 243 243 243 241 240 237 233 227 225 227 221 209 203 202 200 199 201 198 189 185 182 181 182 183 186 187 188 189 188 189
275 276 276 276 276 275 274 273 273 272 272 271 270 270 269 268 266 264 262 261 265 269 266 262 264 266 263 259 255 251 248 246 243 241 241 241 240 239 237 236 236 235 234 233 233 235 240 245 248 250 251 249 247 244 242 243 244 243 242 242 240 239 239 239 235 228 224 227 228 221 213 208 209 208 209 211 207 201 192 187 188 189 193 195 198 200 200 199
277 277 278 277 277 276 275 273 273 273 272 271 270 270 270 271 271 269 266 262 264 272 270 262 259 263 265 263 260 255 250 247 244 242 241 240 239 239 238 236 235 235 234 233 231 232 238 242 245 248 250 248 246 244 242 241 242 242 241 240 239 236 237 240 239 233 229 227 226 227 226 221 220 218 214 214 213 211 203 198 200 200 200 202 204 208 210 209
279 279 279 280 279 279 278 276 275 274 274 273 272 271 271 271 271 272 272 268 267 275 275 267 259 259 262 263 263 260 256 250 245 243 242 240 238 238 237 236 235 234 233 232 231 231 235 238 240 245 247 246 245 242 240 238 238 240 240 239 238 235 234 238 239 235 231 229 227 229 232 231 229 226 221 217 215 213 209 207 210 210 209 210 215 218 218 218
280 280 280 280 280 280 281 280 278 276 275 274 274 273 272 272 272 272 273 274 273 276 277 272 262 257 259 260 260 261 260 256 249 245 244 241 238 237 237 236 235 235 233 231 231 231 233 235 236 241 244 245 244 242 240 239 237 239 240 239 239 238 235 237 239 237 233 230 229 231 233 233 232 231 226 223 219 215 214 212 212 215 216 216 223 230 231 231
278 278 278 277 278 278 279 279 279 277 275 275 274 273 273 272 272 272 273 276 277 276 275 273 267 262 259 258 257 259 260 260 256 250 247 244 240 237 236 236 235 235 233 231 231 231 231 233 234 239 244 246 245 243 242 242 239 239 241 241 240 239 237 238 240 240 236 233 234 234 235 235 232 231 230 229 225 220 219 219 218 219 220 219 221 228 237 240
275 275 275 274 274 274 275 276 277 276 274 273 272 271 271 271 271 272 272 273 274 274 275 274 272 268 264 259 257 257 258 259 258 256 252 247 243 239 236 235 234 235 233 231 231 231 230 231 233 237 242 245 245 244 243 243 241 240 240 240 241 240 239 240 242 242 238 237 238 237 237 238 235 232 232 232 229 224 223 224 224 223 223 225 223 221 231 243
273 273 272 272 272 272 273 274 274 274 272 270 269 268 268 268 269 271 270 268 269 271 274 275 274 273 268 263 260 258 257 257 256 256 255 251 247 242 238 235 233 234 234 231 231 231 229 228 231 233 237 241 242 241 241 242 242 241 239 239 241 240 238 240 243 244 238 237 240 239 237 238 238 236 234 235 233 229 227 226 228 228 225 227 227 221 227 241
274 273 272 271 271 271 272 273 273 273 272 269 267 266 265 266 267 268 267 267 267 268 269 272 274 275 272 269 264 260 260 259 255 255 256 254 250 245 242 238 234 233 233 231 231 231 229 227 229 232 234 239 241 240 241 242 242 242 239 238 240 238 237 239 242 242 237 233 237 239 237 236 239 240 239 237 236 232 231 230 231 231 228 229 231 227 228 240
276 274 273 271 270 270 271 272 272 272 271 269 267 265 265 266 266 265 265 267 267 266 266 268 271 273 273 273 268 263 264 263 257 255 255 255 254 249 245 241 236 233 232 231 231 231 229 226 228 232 233 236 240 240 240 241 240 241 239 236 237 235 234 236 237 237 234 229 232 237 238 236 239 241 239 237 238 236 234 234 235 235 232 230 232 231 230 238
275 274 273 271 270 270 270 271 271 271 271 270 267 265 266 267 265 264 264 265 266 265 265 266 268 270 271 272 270 267 267 265 258 257 256 254 255 253 249 244 239 236 233 231 230 231 230 226 226 230 231 233 236 237 237 238 238 241 240 235 235 235 233 233 232 233 232 228 229 234 237 236 238 242 242 239 240 239 237 237 237 238 237 234 234 236 235 237
272 272 271 270 270 269 269 270 270 270 270 269 267 266 266 265 265 265 264 263 265 265 264 264 266 267 267 268 268 268 269 266 260 260 259 254 254 254 252 248 242 238 236 233 230 230 231 228 225 228 229 230 234 235 236 237 237 239 239 235 236 237 233 231 232 232 233 230 230 233 234 235 237 241 243 241 241 242 242 242 240 239 241 241 240 242 241 240
270 269 269 268 268 268 268 268 268 268 268 267 267 266 265 264 264 265 265 263 264 264 264 264 264 265 265 266 267 267 269 268 263 262 263 258 254 253 253 252 247 241 238 236 231 228 229 229 226 227 229 229 232 234 235 236 236 238 239 237 236 235 232 230 231 231 232 232 231 232 232 234 237 242 245 243 243 244 243 242 242 242 243 244 244 245 244 244
270 269 268 267 266 266 266 266 266 266 265 265 266 266 264 263 263 263 263 262 262 262 263 263 263 264 264 265 266 265 266 267 265 264 265 261 257 254 252 253 251 246 241 238 234 229 228 230 228 226 228 228 230 232 233 233 235 238 239 239 238 236 233 232 231 232 232 232 233 233 232 234 237 241 245 245 243 243 241 241 245 246 245 245 247 248 247 247
269 268 268 267 266 265 264 265 265 265 264 265 265 265 264 263 262 261 261 261 260 261 262 263 263 263 263 264 264 264 263 265 265 265 265 262 259 255 252 252 252 250 246 240 237 232 227 229 230 226 226 228 229 231 233 233 234 237 237 238 239 237 236 235 234 232 231 229 231 232 233 234 235 238 242 244 242 241 239 242 246 248 248 247 248 249 250 249
269 269 268 267 266 266 265 264 264 264 265 264 264 263 263 262 261 260 260 260 259 259 260 261 261 261 262 262 263 263 263 262 263 265 265 263 260 257 255 253 251 250 249 244 239 234 229 229 231 228 225 228 228 229 233 234 234 236 237 237 239 239 238 238 236 233 232 230 230 231 231 233 234 236 241 243 241 239 238 240 244 247 247 247 248 249 250 251
269 269 268 267 266 266 265 264 264 264 264 264 263 262 261 260 260 259 259 259 258 257 258 259 259 260 261 260 261 262 262 261 261 262 264 263 261 259 256 254 251 249 250 247 242 238 232 229 232 230 225 227 229 229 231 233 232 233 235 236 237 238 239 238 236 235 235 233 232 232 231 233 234 234 238 242 241 239 239 239 242 246 246 247 248 249 251 252
268 268 267 266 266 266 265 264 263 263 263 263 262 261 260 259 258 258 257 257 257 257 257 257 258 259 259 260 260 260 261 261 260 260 262 262 261 260 257 255 254 251 250 250 247 242 236 230 232 233 227 225 228 228 228 231 231 230 232 233 234 236 237 237 236 236 237 234 233 232 230 232 235 233 235 240 241 239 240 240 242 244 246 247 248 250 251 252
265 265 265 264 263 263 264 263 263 262 262 261 260 259 259 258 257 256 256 255 255 256 256 256 257 258 258 259 258 258 259 260 259 258 259 260 260 261 259 256 257 254 249 249 248 245 240 233 232 235 230 224 227 228 228 230 231 231 231 232 234 234 236 238 238 237 237 235 233 233 230 230 235 236 236 239 242 241 240 241 242 243 245 246 247 248 250 250
263 262 261 261 260 260 260 260 260 260 259 259 258 257 257 256 256 255 255 254 254 254 255 255 255 256 257 257 257 257 257 257 258 258 258 259 259 260 259 258 257 255 250 248 248 247 244 238 232 234 233 227 226 229 229 230 232 232 232 233 235 235 236 239 240 238 237 236 235 235 232 229 232 235 236 239 242 243 241 240 241 243 244 245 246 246 248 250
262 261 260 260 259 259 258 258 258 258 257 256 256 255 255 255 255 254 254 254 253 253 254 254 254 254 255 255 255 255 256 256 256 256 256 257 258 259 260 259 256 255 252 250 249 249 247 243 236 234 234 231 228 228 230 230 231 232 232 232 233 235 235 237 239 237 236 237 238 236 234 232 231 233 237 238 240 243 243 239 240 242 244 246 246 246 248 250
262 262 261 260 260 260 259 259 258 258 258 257 256 256 256 255 255 255 254 253 253 253 253 253 253 253 253 254 254 254 255 255 255 254 254 256 257 257 258 257 254 254 255 254 251 249 248 246 242 237 235 233 230 228 228 229 229 230 231 230 231 232 232 234 236 236 234 236 237 235 234 234 232 232 236 238 238 242 244 241 239 241 244 246 247 247 249 251
264 263 263 262 262 261 261 260 260 259 259 260 259 259 258 257 257 256 255 254 253 253 253 252 252 252 252 253 253 253 253 253 253 252 252 254 255 255 255 254 253 255 256 255 252 249 247 245 244 241 236 233 232 229 228 229 230 229 230 231 230 230 230 232 233 233 233 235 236 234 234 236 235 232 234 237 238 242 245 244 241 241 243 245 247 247 249 251
267 266 265 264 264 263 262 262 261 261 261 261 261 260 259 258 257 256 255 254 253 253 253 253 252 252 252 252 252 251 251 252 252 251 251 251 253 253 252 252 253 255 255 255 253 250 247 245 244 243 240 236 233 231 229 230 230 229 230 231 231 230 230 231 232 232 233 234 234 234 234 236 236 233 232 233 235 240 243 243 242 242 242 243 245 246 249 251
269 267 266 265 264 263 263 262 261 261 261 260 260 259 258 257 256 255 254 253 252 252 252 251 251 250 250 249 249 249 249 250 250 250 250 249 250 251 251 251 253 254 253 253 253 251 248 245 243 243 243 240 236 233 231 231 231 230 229 230 231 231 231 231 232 232 233 234 234 234 234 235 236 235 233 231 232 236 241 243 243 242 242 242 243 245 247 250
269 267 266 265 263 262 261 260 260 260 260 259 259 258 257 256 255 253 253 252 252 251 251 250 249 248 247 247 248 248 249 249 249 249 248 248 248 249 250 250 251 252 251 251 252 252 249 244 241 241 242 242 240 237 234 232 232 231 231 230 231 232 231 231 231 232 233 234 235 235 235 236 238 238 236 234 232 234 238 241 243 244 244 244 244 245 246 248
269 267 266 264 263 262 260 259 259 258 258 258 257 256 256 255 254 253 252 252 252 251 250 249 248 248 249 249 249 249 248 248 247 248 248 247 247 247 248 249 249 249 250 250 251 251 249 245 242 241 241 242 243 241 238 235 232 232 232 231 232 232 233 232 231 231 233 234 235 236 235 237 239 239 238 237 236 235 238 241 243 245 247 247 247 247 248 248
269 267 265 264 262 261 260 259 258 258 257 256 255 254 254 253 252 251 250 249 249 247 247 247 247 248 248 248 247 246 246 246 248 249 249 249 248 249 249 249 249 249 250 250 250 250 249 246 243 241 239 240 242 243 242 238 234 231 231 232 232 232 233 233 232 231 231 232 234 234 233 235 238 239 237 238 238 237 238 241 243 245 247 248 250 250 250 250
Height
10999 10999 10999 10999 10999 11000 11000 11000 11001 11001 11001 11001 11002 11002 11002 11001 11001 11001 11001 11002 11002 11002 11002 11002 11002 11003 11003 11002 11002 11001 11000 10999 10998 10997 10996 10996 10995 10994 10993 10992 10990 10989 10987 10986 10985 10984 10983 10981 10979 10977 10974 10972 10971 10970 10970 10971 10973 10975 10976 10978 10975 10974 10975 10976 10977 10978 10978 10979 10981 10982 10983 10985 10986 10987 10988 10988 10989 10989 10989 10990 10990 10990 10990 10990 10989 10989 10988 10988
10997 10997 10997 10997 10997 10998 10998 10998 10998 10999 10999 10999 11000 11000 11000 11000 11000 11000 11000 11000 11001 11001 11001 11001 11001 11002 11002 11002 11002 11001 11000 10999 10999 10998 10997 10996 10995 10994 10993 10992 10991 10990 10988 10987 10986 10985 10983 10982 10980 10978 10975 10973 10970 10969 10969 10969 10971 10973 10976 10977 10974 10972 10973 10974 10976 10976 10977 10978 10979 10980 10982 10983 10984 10985 10986 10986 10987 10987 10988 10988 10988 10988 10988 10988 10987 10987 10986 10986
10994 10995 10995 10995 10995 10995 10996 10996 10996 10996 10996 10997 10997 10998 10998 10998 10998 10998 10998 10998 10999 10999 11000 11000 11000 11001 11001 11001 11001 11001 11000 11000 10998 10998 10997 10996 10995 10994 10993 10992 10992 10990 10989 10987 10986 10985 10984 10982 10981 10979 10976 10974 10971 10969 10968 10968 10969 10971 10973 10974 10972 10972 10972 10973 10974 10975 10976 10977 10978 10979 10980 10982 10983 10984 10984 10985 10985 10986 10986 10986 10986 10986 10986 10986 10986 10985 10985 10985
10992 10992 10992 10993 10993 10993 10993 10993 10993 10993 10994 10994 10995 10995 10996 10996 10995 10996 10996 10996 10997 10997 10998 10998 10999 10999 11000 11000 11001 11000 11000 10999 10998 10997 10997 10996 10995 10994 10993 10992 10992 10991 10990 10988 10987 10985 10984 10983 10981 10979 10977 10974 10972 10969 10968 10967 10968 10969 10970 10970 10970 10971 10972 10973 10974 10974 10975 10976 10977 10978 10979 10980 10981 10982 10983 10983 10984 10984 10984 10985 10985 10985 10985 10985 10984 10984 10984 10983
10989 10989 10990 10990 10990 10990 10991 10991 10991 10991 10991 10991 10992 10993 10993 10993 10993 10993 10993 10993 10994 10995 10996 10996 10997 10998 10999 10999 10999 11000 10999 10999 10998 10997 10996 10996 10995 10994 10993 10992 10992 10991 10990 10989 10987 10986 10985 10983 10982 10980 10978 10976 10973 10970 10968 10967 10967 10967 10968 10969 10970 10970 10971 10972 10973 10974 10975 10975 10976 10977 10978 10979 10980 10981 10981 10982 10982 10983 10983 10983 10983 10984 10984 10984 10983 10983 10983 10983
10986 10986 10986 10987 10987 10987 10988 10988 10988 10988 10988 10988 10989 10990 10990 10991 10991 10990 10990 10990 10991 10991 10992 10993 10994 10995 10996 10997 10998 10999 10998 10998 10997 10996 10996 10995 10994 10993 10992 10992 10991 10991 10990 10989 10988 10986 10985 10984 10982 10981 10979 10977 10974 10971 10969 10968 10967 10967 10968 10969 10970 10970 10971 10972 10973 10973 10974 10975 10975 10976 10977 10978 10979 10980 10980 10981 10981 10982 10982 10982 10982 10983 10982 10982 10982 10982 10982 10982
10982 10982 10983 10983 10983 10984 10984 10984 10984 10985 10985 10985 10986 10987 10987 10988 10988 10988 10988 10987 10987 10988 10989 10990 10991 10992 10993 10995 10996 10997 10998 10997 10995 10995 10995 10994 10993 10993 10992 10991 10991 10990 10990 10990 10988 10987 10985 10984 10983 10982 10980 10978 10976 10973 10971 10970 10969 10968 10968 10969 10970 10971 10971 10972 10972 10973 10973 10974 10975 10975 10976 10977 10978 10978 10979 10979 10980 10980 10981 10981 10981 10981 10982 10982 10982 10982 10982 10982
10978 10978 10979 10979 10979 10980 10980 10980 10981 10981 10981 10982 10983 10983 10984 10985 10985 10985 10985 10985 10984 10985 10985 10986 10987 10989 10990 10992 10994 10995 10997 10996 10993 10994 10994 10993 10992 10991 10991 10990 10990 10990 10989 10989 10989 10987 10986 10984 10984 10982 10981 10979 10978 10975 10973 10971 10970 10969 10969 10969 10970 10971 10971 10972 10972 10972 10973 10973 10974 10975 10976 10976 10977 10977 10977 10978 10979 10979 10980 10980 10981 10981 10981 10981 10982 10982 10981 10981
10974 10974 10974 10975 10975 10975 10976 10976 10977 10977 10977 10978 10979 10980 10981 10981 10982 10982 10982 10982 10982 10982 10982 10982 10983 10985 10986 10988 10991 10993 10995 10993 10991 10992 10992 10991 10991 10990 10990 10990 10989 10989 10988 10988 10988 10988 10987 10985 10984 10983 10982 10981 10979 10977 10975 10974 10972 10971 10970 10970 10970 10971 10971 10971 10971 10972 10972 10973 10974 10975 10975 10975 10975 10976 10976 10977 10978 10979 10979 10980 10980 10981 10981 10981 10981 10981 10981 10981
10969 10969 10970 10970 10970 10971 10971 10972 10972 10972 10973 10973 10974 10975 10976 10977 10978 10978 10979 10979 10979 10979 10979 10979 10980 10981 10983 10985 10987 10990 10992 10990 10988 10990 10990 10989 10990 10989 10988 10989 10988 10988 10987 10987 10988 10987 10987 10985 10984 10983 10983 10982 10980 10979 10977 10975 10974 10972 10971 10971 10970 10971 10971 10971 10971 10971 10972 10973 10974 10975 10975 10975 10975 10975 10975 10976 10977 10978 10979 10980 10980 10981 10981 10981 10981 10981 10981 10980
10963 10964 10964 10965 10965 10965 10965 10966 10966 10967 10967 10968 10969 10970 10971 10973 10973 10974 10975 10975 10976 10976 10976 10976 10976 10977 10979 10981 10984 10986 10987 10985 10985 10987 10988 10987 10988 10988 10987 10987 10987 10986 10986 10986 10986 10987 10986 10986 10984 10983 10983 10982 10981 10980 10979 10977 10975 10974 10972 10971 10971 10970 10971 10971 10971 10971 10972 10973 10974 10975 10975 10975 10974 10974 10975 10975 10977 10978 10979 10979 10980 10980 10980 10980 10980 10980 10980 10979
10957 10958 10958 10958 10959 10959 10959 10960 10960 10961 10961 10962 10962 10963 10965 10966 10968 10969 10970 10971 10971 10972 10972 10972 10973 10974 10975 10978 10980 10981 10982 10981 10982 10985 10986 10985 10985 10986 10986 10985 10985 10985 10984 10985 10985 10985 10986 10986 10985 10984 10983 10982 10982 10981 10980 10978 10977 10975 10974 10972 10971 10971 10971 10971 10971 10971 10972 10973 10974 10975 10975 10975 10974 10974 10974 10975 10976 10977 10978 10978 10979 10979 10980 10979 10979 10979 10979 10979
10951 10951 10951 10952 10952 10952 10953 10953 10954 10954 10954 10955 10956 10957 10958 10959 10961 10963 10964 10965 10966 10967 10968 10968 10969 10970 10971 10974 10975 10976 10978 10978 10980 10981 10983 10983 10983 10984 10984 10983 10983 10983 10983 10983 10983 10984 10984 10985 10985 10984 10983 10982 10982 10981 10980 10979 10978 10977 10975 10973 10972 10972 10971 10972 10972 10972 10972 10973 10974 10975 10975 10975 10974 10974 10974 10974 10975 10976 10977 10978 10978 10979 10979 10979 10979 10979 10979 10978
10945 10945 10945 10945 10945 10945 10946 10946 10947 10947 10947 10948 10949 10950 10951 10952 10954 10956 10958 10959 10960 10961 10962 10964 10965 10965 10967 10969 10969 10971 10973 10975 10976 10978 10979 10980 10980 10981 10982 10981 10981 10981 10980 10980 10981 10982 10983 10983 10984 10984 10983 10982 10982 10981 10980 10980 10979 10978 10976 10975 10973 10973 10972 10972 10972 10972 10973 10973 10974 10975 10975 10975 10974 10973 10973 10974 10975 10976 10976 10977 10977 10978 10979 10980 10979 10979 10978 10978
10938 10938 10938 10938 10938 10938 10938 10939 10940 10940 10940 10941 10942 10943 10944 10945 10946 10948 10950 10952 10953 10955 10956 10958 10959 10960 10962 10964 10964 10966 10969 10970 10972 10974 10976 10977 10977 10978 10979 10979 10978 10978 10978 10978 10978 10980 10981 10981 10982 10983 10983 10982 10982 10981 10981 10980 10979 10978 10977 10976 10974 10973 10973 10973 10973 10973 10973 10974 10974 10975 10975 10975 10974 10973 10973 10974 10975 10975 10976 10977 10977 10978 10979 10980 10980 10980 10979 10979
10931 10931 10931 10931 10931 10931 10931 10932 10932 10933 10933 10933 10934 10936 10936 10938 10939 10940 10943 10944 10946 10947 10949 10951 10952 10954 10957 10959 10959 10960 10963 10964 10967 10970 10972 10973 10974 10974 10975 10975 10975 10975 10975 10975 10975 10977 10978 10979 10980 10981 10982 10982 10981 10981 10981 10980 10979 10978 10978 10977 10975 10974 10974 10974 10974 10974 10974 10974 10974 10974 10975 10975 10974 10973 10973 10974 10975 10976 10976 10977 10977 10978 10979 10981 10981 10981 10981 10980
10925 10925 10925 10925 10924 10924 10924 10925 10925 10925 10926 10925 10926 10928 10929 10930 10931 10932 10934 10936 10938 10940 10942 10944 10945 10948 10950 10952 10954 10955 10956 10958 10961 10965 10967 10969 10970 10971 10972 10972 10973 10973 10972 10972 10972 10974 10975 10976 10977 10979 10980 10981 10981 10980 10980 10980 10979 10979 10978 10977 10977 10975 10974 10974 10975 10975 10975 10975 10975 10975 10975 10975 10974 10973 10973 10974 10975 10976 10976 10977 10978 10978 10980 10981 10982 10983 10983 10982
10919 10919 10919 10919 10918 10917 10917 10918 10918 10918 10918 10918 10919 10920 10921 10921 10923 10924 10925 10927 10929 10931 10934 10936 10938 10941 10943 10945 10948 10948 10949 10952 10955 10959 10962 10964 10966 10967 10968 10969 10970 10970 10969 10969 10969 10970 10972 10973 10975 10976 10978 10979 10979 10979 10979 10979 10979 10978 10978 10977 10977 10976 10975 10975 10975 10975 10976 10976 10976 10975 10975 10975 10974 10973 10973 10974 10975 10976 10976 10977 10978 10979 10980 10982 10983 10984 10984 10984
10914 10914 10914 10914 10913 10912 10911 10911 10911 10911 10911 10912 10912 10912 10913 10913 10915 10917 10917 10918 10921 10923 10926 10927 10930 10934 10935 10938 10941 10941 10943 10945 10948 10952 10956 10958 10961 10962 10963 10965 10966 10967 10967 10966 10966 10967 10968 10970 10972 10973 10974 10976 10978 10978 10978 10978 10978 10978 10978 10977 10977 10977 10976 10975 10975 10975 10976 10976 10976 10976 10976 10976 10975 10973 10973 10974 10975 10975 10976 10977 10978 10980 10981 10982 10983 10984 10985 10984
10910 10909 10909 10909 10909 10907 10906 10906 10906 10905 10905 10905 10905 10905 10906 10906 10907 10909 10908 10909 10912 10914 10917 10919 10921 10925 10928 10930 10933 10934 10936 10938 10940 10944 10949 10952 10955 10957 10959 10960 10962 10963 10964 10963 10963 10963 10964 10968 10969 10968 10970 10973 10976 10976 10976 10977 10976 10977 10977 10977 10977 10976 10976 10976 10975 10975 10976 10977 10977 10977 10977 10977 10975 10974 10973 10974 10975 10975 10976 10977 10978 10980 10981 10981 10983 10984 10985 10985
10904 10904 10904 10904 10905 10904 10902 10902 10901 10900 10899 10900 10900 10900 10900 10899 10901 10902 10900 10901 10904 10906 10908 10910 10912 10915 10919 10922 10924 10926 10929 10931 10933 10937 10941 10945 10948 10951 10953 10955 10957 10959 10960 10959 10959 10959 10962 10965 10964 10963 10966 10970 10973 10974 10974 10975 10975 10975 10975 10976 10976 10975 10975 10976 10976 10975 10976 10977 10977 10978 10978 10977 10976 10975 10974 10974 10975 10975 10976 10977 10978 10980 10981 10981 10982 10983 10984 10985
10899 10899 10898 10899 10900 10900 10898 10897 10896 10895 10895 10895 10895 10895 10894 10894 10894 10895 10895 10894 10895 10899 10901 10902 10904 10905 10910 10915 10915 10917 10921 10923 10926 10929 10933 10937 10941 10944 10947 10949 10952 10953 10954 10956 10957 10958 10959 10960 10958 10958 10962 10966 10969 10972 10972 10972 10973 10973 10973 10974 10975 10975 10975 10975 10975 10975 10976 10976 10977 10977 10978 10977 10977 10976 10975 10975 10975 10976 10976 10977 10978 10980 10981 10981 10982 10983 10984 10984
10894 10893 10892 10892 10893 10894 10893 10892 10891 10890 10890 10890 10889 10890 10889 10889 10889 10889 10890 10889 10888 10892 10894 10894 10896 10896 10900 10906 10906 10908 10912 10915 10919 10921 10923 10929 10933 10937 10940 10943 10945 10947 10950 10953 10954 10955 10955 10954 10951 10952 10958 10963 10966 10968 10969 10969 10971 10971 10971 10972 10973 10974 10974 10974 10975 10975 10975 10975 10975 10976 10977 10977 10977 10977 10976 10976 10976 10976 10976 10977 10978 10979 10980 10981 10982 10983 10984 10984
10888 10886 10886 10886 10886 10888 10888 10886 10886 10885 10884 10884 10884 10884 10884 10884 10884 10884 10885 10884 10882 10885 10888 10888 10888 10887 10891 10895 10897 10900 10903 10906 10911 10912 10915 10920 10924 10929 10933 10934 10937 10942 10945 10948 10949 10951 10950 10947 10946 10949 10955 10959 10962 10965 10966 10967 10968 10968 10969 10969 10970 10971 10972 10972 10973 10974 10974 10974 10974 10975 10976 10976 10977 10977 10977 10976 10976 10976 10977 10977 10978 10979 10980 10981 10982 10982 10983 10984
10882 10880 10879 10879 10879 10881 10882 10881 10880 10878 10878 10878 10878 10878 10878 10878 10879 10879 10879 10880 10878 10878 10882 10884 10881 10880 10882 10885 10889 10891 10893 10897 10901 10904 10907 10910 10914 10920 10924 10926 10931 10936 10939 10942 10944 10946 10945 10942 10943 10946 10950 10954 10957 10961 10963 10963 10964 10965 10966 10967 10967 10969 10970 10971 10971 10972 10972 10973 10973 10973 10974 10975 10975 10976 10977 10977 10977 10977 10977 10977 10978 10979 10980 10981 10982 10982 10983 10984
10876 10874 10872 10871 10872 10873 10875 10875 10873 10872 10872 10872 10872 10872 10872 10872 10873 10873 10873 10875 10875 10873 10874 10877 10876 10874 10874 10877 10880 10882 10886 10890 10891 10895 10898 10899 10905 10911 10915 10919 10924 10928 10931 10934 10938 10941 10941 10938 10940 10942 10944 10949 10953 10956 10959 10960 10960 10962 10963 10963 10964 10966 10968 10968 10968 10969 10971 10971 10972 10972 10972 10973 10974 10974 10975 10976 10976 10977 10977 10977 10978 10979 10980 10981 10982 10982 10983 10983
10869 10868 10866 10864 10865 10865 10867 10869 10867 10866 10866 10864 10865 10865 10866 10866 10866 10866 10867 10869 10872 10869 10867 10870 10872 10869 10868 10870 10871 10873 10880 10881 10882 10888 10888 10890 10897 10902 10906 10912 10915 10918 10922 10926 10932 10937 10935 10934 10937 10938 10938 10943 10948 10951 10954 10955 10957 10958 10959 10959 10961 10964 10965 10965 10965 10967 10968 10969 10970 10971 10971 10972 10972 10973 10973 10974 10975 10976 10976 10977 10977 10978 10980 10981 10981 10982 10982 10983
10862 10862 10860 10857 10858 10858 10858 10861 10862 10860 10859 10858 10858 10859 10860 10860 10860 10860 10860 10863 10867 10864 10860 10862 10865 10865 10864 10864 10864 10866 10871 10872 10876 10881 10879 10881 10888 10892 10897 10902 10905 10908 10912 10919 10926 10929 10927 10928 10933 10931 10931 10937 10941 10944 10947 10949 10953 10953 10953 10955 10957 10960 10962 10961 10961 10963 10965 10966 10968 10969 10969 10970 10971 10971 10972 10972 10973 10974 10975 10976 10977 10978 10979 10980 10981 10981 10982 10982
10854 10855 10854 10850 10850 10850 10849 10852 10854 10854 10853 10851 10851 10852 10853 10853 10853 10854 10854 10858 10860 10857 10855 10855 10858 10860 10859 10859 10859 10861 10863 10865 10871 10873 10870 10873 10879 10883 10888 10891 10896 10899 10905 10913 10917 10919 10921 10923 10927 10925 10925 10931 10934 10937 10941 10944 10949 10948 10947 10951 10954 10957 10959 10958 10958 10959 10961 10964 10966 10967 10967 10968 10969 10970 10970 10970 10972 10973 10974 10975 10976 10976 10977 10978 10980 10981 10981 10982
10846 10847 10846 10843 10842 10842 10841 10842 10845 10846 10846 10845 10844 10844 10845 10846 10847 10847 10849 10852 10851 10849 10850 10848 10850 10853 10853 10854 10855 10856 10857 10858 10863 10864 10863 10866 10870 10875 10878 10881 10887 10891 10896 10905 10907 10910 10914 10916 10921 10923 10923 10925 10927 10932 10936 10939 10943 10942 10943 10949 10951 10953 10955 10955 10955 10956 10959 10963 10964 10964 10964 10965 10966 10967 10968 10968 10970 10971 10972 10973 10974 10975 10975 10976 10978 10979 10980 10981
10838 10838 10838 10837 10834 10833 10833 10834 10836 10837 10838 10839 10837 10837 10838 10839 10840 10841 10844 10846 10841 10842 10845 10841 10843 10846 10846 10848 10850 10851 10851 10852 10855 10856 10856 10858 10860 10866 10869 10872 10878 10881 10887 10896 10898 10900 10905 10910 10916 10918 10918 10917 10920 10926 10930 10932 10935 10936 10941 10946 10947 10949 10951 10952 10952 10954 10959 10961 10961 10961 10960 10962 10964 10964 10965 10966 10968 10969 10970 10971 10972 10972 10973 10974 10975 10976 10977 10980
10829 10829 10829 10829 10826 10823 10823 10825 10826 10827 10830 10830 10828 10829 10830 10831 10835 10836 10837 10836 10833 10836 10838 10834 10836 10839 10839 10841 10844 10845 10846 10846 10848 10848 10848 10850 10852 10856 10859 10863 10868 10872 10877 10885 10886 10888 10895 10904 10907 10908 10909 10909 10911 10919 10923 10925 10927 10930 10937 10941 10942 10945 10948 10949 10950 10953 10957 10958 10957 10957 10957 10958 10960 10960 10961 10963 10965 10967 10967 10968 10970 10970 10971 10972 10973 10974 10975 10978
10819 10820 10819 10819 10818 10814 10813 10815 10814 10816 10820 10820 10819 10821 10821 10824 10831 10831 10828 10827 10825 10829 10830 10827 10829 10831 10832 10835 10836 10838 10840 10839 10841 10842 10842 10844 10845 10848 10850 10854 10859 10863 10867 10873 10875 10879 10887 10895 10898 10900 10904 10904 10905 10913 10918 10919 10920 10923 10930 10935 10936 10940 10944 10947 10948 10949 10952 10953 10952 10950 10951 10954 10956 10956 10959 10961 10962 10964 10965 10966 10967 10967 10969 10970 10970 10972 10973 10975
10808 10809 10808 10809 10809 10805 10803 10803 10803 10804 10808 10810 10810 10811 10813 10820 10825 10822 10820 10818 10816 10820 10822 10821 10822 10822 10825 10827 10827 10831 10833 10831 10834 10836 10835 10837 10838 10841 10843 10845 10850 10853 10855 10861 10866 10871 10877 10886 10894 10895 10897 10898 10899 10906 10911 10910 10912 10915 10919 10925 10928 10934 10940 10943 10944 10944 10945 10946 10945 10944 10947 10952 10952 10951 10954 10956 10958 10960 10961 10963 10964 10964 10965 10967 10968 10969 10970 10972
10796 10797 10797 10797 10798 10796 10793 10792 10792 10791 10794 10799 10800 10801 10809 10815 10815 10811 10812 10811 10808 10810 10813 10814 10814 10815 10818 10819 10819 10825 10825 10823 10827 10829 10828 10831 10832 10833 10835 10836 10841 10844 10846 10852 10858 10862 10867 10878 10884 10882 10885 10889 10891 10896 10899 10899 10905 10907 10907 10915 10924 10931 10935 10935 10936 10937 10937 10938 10939 10941 10945 10948 10947 10946 10948 10952 10954 10956 10958 10960 10961 10961 10962 10963 10965 10965 10967 10969
10783 10783 10784 10784 10786 10785 10782 10780 10780 10778 10781 10785 10788 10795 10804 10806 10803 10801 10801 10803 10802 10801 10802 10806 10807 10807 10810 10811 10811 10817 10817 10815 10819 10822 10821 10824 10825 10826 10827 10829 10832 10836 10838 10842 10847 10853 10858 10866 10872 10872 10876 10883 10884 10887 10888 10892 10901 10898 10896 10911 10923 10924 10924 10925 10929 10931 10930 10933 10937 10939 10941 10943 10942 10941 10944 10948 10950 10952 10955 10957 10957 10957 10958 10960 10961 10962 10963 10965
10769 10769 10769 10770 10773 10772 10769 10767 10766 10766 10766 10769 10776 10788 10794 10792 10792 10790 10789 10792 10794 10791 10792 10796 10798 10797 10799 10802 10804 10808 10809 10807 10811 10815 10814 10816 10819 10820 10820 10821 10824 10828 10830 10831 10836 10844 10849 10853 10860 10864 10869 10874 10875 10875 10879 10886 10891 10889 10893 10908 10912 10908 10911 10918 10922 10923 10925 10932 10935 10934 10935 10938 10939 10938 10938 10943 10946 10948 10952 10952 10951 10953 10955 10956 10957 10958 10960 10962
10755 10754 10752 10756 10760 10757 10755 10753 10751 10752 10752 10755 10766 10777 10781 10779 10780 10779 10777 10779 10783 10781 10782 10785 10787 10788 10790 10794 10795 10798 10801 10801 10803 10807 10805 10807 10812 10814 10814 10814 10816 10819 10821 10822 10826 10834 10841 10843 10849 10856 10860 10864 10865 10865 10870 10878 10883 10886 10894 10900 10897 10898 10907 10914 10916 10919 10924 10930 10931 10930 10931 10933 10935 10934 10933 10937 10941 10944 10947 10947 10946 10948 10951 10952 10953 10954 10956 10958
10741 10739 10736 10742 10744 10739 10741 10740 10736 10736 10737 10743 10755 10762 10765 10766 10767 10767 10765 10766 10770 10772 10774 10776 10776 10778 10782 10785 10785 10787 10792 10795 10795 10797 10797 10799 10804 10807 10808 10808 10809 10811 10812 10814 10817 10824 10832 10834 10836 10845 10851 10851 10853 10857 10864 10874 10880 10882 10887 10888 10887 10894 10904 10908 10910 10914 10918 10922 10924 10925 10927 10929 10932 10931 10929 10931 10935 10940 10943 10942 10941 10943 10946 10948 10949 10950 10952 10954
10726 10723 10719 10726 10727 10720 10723 10725 10721 10721 10724 10731 10741 10744 10747 10751 10752 10754 10754 10753 10756 10762 10765 10765 10764 10766 10771 10775 10776 10777 10781 10786 10788 10789 10789 10791 10794 10799 10803 10801 10801 10803 10803 10805 10809 10814 10822 10826 10825 10831 10839 10840 10846 10857 10864 10869 10874 10875 10877 10880 10882 10889 10896 10897 10901 10907 10911 10915 10919 10921 10923 10925 10926 10926 10925 10924 10929 10935 10938 10938 10937 10938 10941 10943 10944 10945 10947 10948
10708 10706 10701 10708 10710 10700 10700 10706 10706 10708 10709 10716 10724 10727 10730 10734 10736 10739 10741 10741 10743 10749 10754 10754 10752 10755 10760 10764 10767 10768 10768 10775 10781 10780 10780 10783 10786 10790 10795 10793 10793 10795 10795 10797 10802 10805 10812 10819 10815 10816 10830 10839 10844 10854 10856 10855 10860 10864 10866 10872 10876 10880 10882 10885 10893 10902 10907 10911 10915 10916 10920 10921 10919 10921 10920 10916 10921 10929 10932 10933 10934 10934 10936 10938 10939 10941 10942 10943
10687 10686 10682 10687 10691 10680 10676 10684 10690 10691 10693 10700 10707 10708 10710 10715 10719 10723 10726 10728 10731 10736 10740 10741 10742 10744 10747 10752 10757 10758 10757 10763 10771 10772 10772 10774 10777 10780 10784 10787 10788 10789 10790 10791 10794 10797 10801 10809 10808 10807 10823 10835 10834 10839 10842 10840 10846 10851 10854 10862 10866 10866 10869 10876 10888 10896 10899 10906 10909 10909 10914 10915 10912 10915 10914 10909 10915 10923 10926 10928 10929 10930 10932 10934 10935 10937 10937 10938
10665 10666 10662 10662 10667 10663 10655 10661 10670 10671 10674 10683 10686 10686 10689 10696 10701 10706 10710 10714 10719 10722 10724 10728 10732 10733 10735 10740 10744 10746 10747 10751 10759 10763 10762 10764 10767 10769 10775 10781 10782 10781 10784 10783 10783 10788 10791 10800 10804 10802 10812 10824 10823 10826 10831 10832 10836 10841 10848 10856 10856 10859 10868 10874 10881 10886 10889 10898 10901 10900 10907 10911 10907 10908 10908 10906 10910 10916 10920 10922 10923 10925 10927 10928 10930 10931 10930 10932
10640 10642 10640 10635 10639 10642 10637 10640 10647 10647 10651 10661 10663 10665 10670 10676 10683 10689 10693 10700 10705 10707 10709 10714 10719 10720 10722 10726 10730 10734 10736 10740 10748 10752 10752 10754 10757 10760 10766 10774 10775 10771 10773 10774 10775 10781 10785 10791 10797 10795 10800 10812 10817 10819 10823 10828 10831 10836 10846 10852 10851 10858 10868 10868 10870 10875 10882 10891 10892 10892 10903 10905 10900 10900 10902 10903 10906 10908 10912 10916 10917 10919 10920 10921 10924 10925 10924 10926
10613 10615 10617 10610 10610 10615 10617 10619 10621 10621 10627 10637 10640 10644 10650 10656 10664 10670 10676 10683 10688 10691 10694 10699 10704 10707 10709 10710 10715 10721 10724 10729 10736 10740 10742 10744 10747 10751 10758 10766 10766 10760 10762 10768 10771 10775 10778 10782 10788 10791 10794 10803 10809 10813 10817 10821 10824 10827 10835 10841 10845 10852 10858 10857 10859 10864 10875 10882 10881 10887 10899 10897 10891 10894 10895 10900 10902 10899 10901 10910 10912 10912 10913 10914 10918 10919 10918 10921
10589 10588 10590 10586 10583 10590 10596 10596 10596 10597 10603 10611 10617 10625 10631 10636 10644 10650 10658 10666 10671 10674 10678 10682 10687 10691 10694 10697 10702 10709 10713 10717 10723 10728 10731 10734 10737 10743 10749 10754 10753 10749 10756 10764 10765 10767 10771 10775 10781 10785 10787 10791 10797 10803 10806 10806 10808 10814 10820 10827 10833 10839 10843 10846 10846 10854 10867 10871 10868 10881 10891 10884 10884 10890 10890 10895 10897 10890 10892 10902 10906 10906 10907 10908 10911 10911 10912 10916
10564 10563 10563 10559 10558 10566 10571 10570 10570 10571 10576 10586 10597 10606 10612 10617 10625 10632 10641 10649 10653 10655 10658 10663 10669 10676 10682 10685 10689 10695 10700 10703 10709 10716 10721 10723 10726 10733 10739 10741 10741 10743 10751 10756 10756 10759 10763 10768 10773 10775 10777 10780 10785 10791 10794 10794 10798 10807 10813 10816 10821 10826 10830 10833 10836 10847 10859 10857 10859 10875 10881 10875 10880 10887 10885 10889 10891 10884 10885 10893 10897 10899 10901 10902 10903 10904 10906 10909
10534 10536 10536 10531 10531 10540 10545 10543 10543 10546 10553 10564 10576 10585 10590 10597 10606 10613 10620 10628 10632 10634 10639 10646 10652 10660 10667 10670 10672 10679 10685 10689 10695 10703 10709 10712 10716 10722 10727 10729 10732 10738 10744 10746 10746 10751 10755 10760 10764 10766 10769 10772 10774 10779 10784 10785 10790 10798 10803 10806 10810 10816 10821 10825 10831 10842 10846 10845 10854 10867 10868 10868 10875 10879 10879 10883 10882 10877 10877 10882 10886 10890 10894 10894 10895 10898 10901 10903
10504 10504 10506 10504 10504 10512 10518 10516 10516 10521 10529 10539 10550 10559 10566 10574 10583 10590 10596 10603 10608 10612 10621 10629 10635 10641 10647 10651 10655 10663 10670 10677 10683 10691 10696 10700 10705 10710 10714 10719 10725 10731 10735 10736 10738 10743 10749 10753 10756 10757 10761 10763 10764 10770 10775 10778 10782 10788 10793 10797 10800 10805 10813 10819 10826 10834 10836 10839 10849 10856 10858 10862 10867 10871 10875 10877 10873 10868 10869 10872 10876 10880 10883 10885 10889 10893 10895 10897
10473 10473 10476 10477 10477 10484 10488 10488 10490 10496 10502 10511 10523 10532 10539 10548 10557 10563 10569 10576 10584 10594 10604 10609 10612 10617 10625 10632 10640 10650 10659 10665 10670 10676 10681 10688 10694 10699 10704 10711 10717 10721 10724 10727 10730 10735 10742 10745 10746 10747 10751 10755 10758 10762 10766 10770 10774 10778 10783 10788 10792 10796 10803 10810 10819 10826 10830 10835 10843 10847 10851 10858 10862 10866 10869 10869 10867 10864 10862 10864 10869 10872 10874 10878 10883 10887 10888 10891
10444 10446 10447 10448 10451 10455 10457 10460 10466 10472 10477 10486 10497 10504 10511 10520 10528 10537 10547 10556 10567 10578 10583 10583 10587 10597 10611 10623 10632 10639 10643 10646 10651 10660 10669 10678 10685 10689 10694 10702 10707 10709 10714 10719 10722 10727 10733 10736 10737 10738 10743 10750 10752 10753 10757 10761 10764 10768 10774 10781 10787 10791 10796 10803 10812 10818 10823 10829 10833 10837 10847 10856 10856 10857 10861 10862 10862 10862 10859 10858 10861 10865 10867 10871 10875 10878 10881 10885
10420 10422 10422 10424 10427 10429 10430 10434 10441 10448 10454 10461 10468 10475 10484 10493 10502 10515 10527 10537 10547 10553 10554 10558 10572 10589 10603 10611 10614 10615 10617 10625 10639 10652 10661 10669 10676 10679 10684 10691 10695 10699 10705 10710 10713 10718 10724 10727 10729 10731 10737 10743 10744 10744 10747 10749 10751 10758 10768 10775 10779 10782 10785 10791 10798 10805 10812 10817 10820 10827 10840 10846 10841 10842 10851 10856 10856 10858 10858 10854 10852 10855 10861 10866 10868 10870 10873 10877